www.pogodaiklimat.ru

Погода и климат >> Архив погоды >> Россия >> Приморский край >> Малая Кема


ПОГОДА в Малой Кеме

  • Прогноз погоды в Малой Кеме
  • Монитор погоды в Малой Кеме

АРХИВ ПОГОДЫ в Малой Кеме

Время (UTC), дата Ветер
(напр.,м/с)
 
Видим.   Явления Облачность Т
(С)
Тd
(С)
f
(%)
Тe
(С)
Тes
(С)
Комфортность P
(гПа)
Po
(гПа)
Тmin
(С)
Tmax
(С)
R
(мм)
R24
(мм)
S
(см)
21 9.06 В 1 н/о н/о +9.9 +8.6 92 +9 +9 1014.3 1012.3 +9.3
00 10.06 В 3 н/о н/о +10.3 +8.6 89 +8 1015.2 1013.3
03 10.06 ЮВ 2 н/о н/о +11.6 +8.6 82 +10 1013.9 1012.0
06 10.06 ЮВ 2 н/о н/о +12.2 +8.7 79 +11 1013.9 1012.0
09 10.06 ЮВ 1 н/о н/о +11.0 +8.2 83 +11 +11 1012.6 1010.7 +12.4
12 10.06 СВ 1 н/о н/о +10.0 +8.3 89 +9 1013.9 1012.0
15 10.06 З 1 н/о н/о +9.6 +8.0 90 +9 1014.0 1012.0
18 10.06 З 1 н/о н/о +9.3 +8.1 92 +9 1012.6 1010.7
21 10.06 З 1 н/о н/о +9.4 +8.2 92 +9 +9 1011.4 1009.4 +9.1
00 11.06 Ю 2 н/о н/о +10.6 +9.0 90 +9 1012.6 1010.7
03 11.06 ЮЗ 3 н/о н/о +10.9 +9.2 89 +9 1012.6 1010.7
06 11.06 ЮВ 2 н/о н/о +11.2 +9.5 89 +10 1012.6 1010.7
09 11.06 СВ 2 н/о н/о +10.5 +9.4 93 +9 +9 1013.9 1012.0 +11.7
12 11.06 В 1 н/о н/о +10.2 +9.4 95 +10 1015.2 1013.3
15 11.06 СВ 2 н/о н/о +10.0 +9.4 96 +8 1013.9 1012.0
18 11.06 штиль 0 н/о н/о +9.9 +9.4 97 +9 1013.9 1012.0
21 11.06 штиль 0 н/о н/о +10.3 +9.9 97 +9 +9 1012.9 1010.9 +9.8 0.8
00 12.06 ЮЗ 1 н/о н/о +10.6 +10.0 96 +10 1013.9 1012.0
03 12.06 Ю 1 н/о н/о +10.5 +9.7 95 +10 1013.9 1012.0
06 12.06 В 4 н/о н/о +10.5 +9.7 95 +8 1012.6 1010.7
09 12.06 В 4 н/о н/о +10.4 +9.0 91 +8 +8 1012.6 1010.7 +10.9 12
12 12.06 В 4 н/о н/о +9.7 +8.3 91 +7 1013.9 1012.0
15 12.06 штиль 0 н/о н/о +9.4 +8.2 92 +9 1012.6 1010.7
18 12.06 СВ 2 н/о н/о +9.2 +7.8 91 +7 1012.7 1010.7
21 12.06 СВ 1 н/о н/о +9.4 +7.6 89 +9 +9 1012.0 1010.0 +8.8
00 13.06 ЮВ 2 н/о н/о +10.9 +8.3 84 +10 1012.6 1010.7
03 13.06 Ю 2 н/о н/о +11.5 +9.1 85 +10 1012.6 1010.7
06 13.06 Ю 2 н/о н/о +11.8 +9.4 85 +11 1011.2 1009.3
09 13.06 Ю 1 н/о н/о +11.0 +9.7 92 +11 +11 1009.9 1008.0 +12.4
12 13.06 штиль 0 н/о н/о +10.4 +9.9 97 +10 1009.9 1008.0
15 13.06 СЗ 1 н/о н/о +10.3 +10.0 98 +10 1009.9 1008.0
18 13.06 штиль 0 н/о н/о +10.2 +10.0 99 +9 1007.2 1005.3
21 13.06 З 1 н/о н/о +10.4 +10.1 98 +10 +10 1005.0 1003.0 +10.1 1
00 14.06 ЮЗ 3 н/о н/о +12.9 +11.6 92 +11 1005.9 1004.0
03 14.06 ЮЗ 4 н/о н/о +14.1 +12.0 87 +13 1005.9 1004.0
06 14.06 З 3 н/о н/о +13.6 +12.0 90 +12 1004.6 1002.7
09 14.06 СВ 6-11
{11}
н/о н/о +10.6 +9.8 95 +7 +7 1007.2 1005.3 +14.7
12 14.06 СВ 4 н/о н/о +10.7 +9.3 91 +8 1009.9 1008.0
15 14.06 В 4 н/о н/о +10.2 +8.6 90 +7 1011.2 1009.3
18 14.06 СВ 3 н/о н/о +10.1 +7.9 86 +8 1011.2 1009.3
21 14.06 В 4 н/о н/о +9.9 +7.6 86 +7 +7 1010.3 1008.3 +9.8
00 15.06 В 4 н/о н/о +10.2 +7.6 84 +8 1012.6 1010.7
03 15.06 В 6 н/о н/о +9.9 +6.6 80 +6 1012.6 1010.7
06 15.06 СВ 4 н/о н/о +9.5 +6.8 83 +7 1012.6 1010.7
09 15.06 В 4
{14}
н/о н/о +9.0 +7.1 88 +6 +6 1012.7 1010.7 +10.7 0.8
12 15.06 В 4 н/о н/о +9.0 +8.2 95 +6 1014.0 1012.0
15 15.06 СВ 4 н/о н/о +10.6 +6.4 75 +8 1012.6 1010.7
18 15.06 СВ 4 н/о н/о +11.8 +2.5 53 +10 1011.2 1009.3
21 15.06 СВ 4-10
{13}
н/о н/о +11.3 +3.4 58 +9 +9 1008.7 1006.7 +8.8 2
00 16.06 В 6-12
{15}
н/о н/о +12.0 +4.7 61 +9 +9 1007.5 1005.5
03 16.06 СВ 7 н/о н/о +11.4 +5.7 68 +8 1007.2 1005.3
06 16.06 В 5 н/о н/о +9.8 +6.3 79 +7 1007.2 1005.3
09 16.06 СВ 4
{12}
н/о н/о +9.9 +5.9 76 +7 +7 1007.2 1005.3 +12.4
12 16.06 СВ 2 н/о н/о +10.4 +4.7 68 +9 1007.2 1005.3
15 16.06 СЗ 2 н/о н/о +5.3 +4.3 93 +3 1007.3 1005.3

 

Местоположение метеостанции Малая Кема (Приморский край, Россия): широта 45.40 долгота 137.10 высота над уровнем моря 16 м.

В архиве по умолчанию представлена погода в Малой Кеме за последнюю неделю. Архивные данные за месяц целиком и за предыдущие месяцы, начиная с января 2011 года, Вы можете получить, выбрав интересующий диапазон дат из раскрывающегося списка и нажав кнопку "Ввод!".


*Определитесь, кто Вы:
робот инопланетянин человек

Внимание! Время в таблицах - всемирное. Для получения местного времени необходимо прибавить поправку, которая равна 10 ч.

Смотрите также архив погоды в соседних городах и на ближайших метеорологических станциях:

Погода в Тернее (Приморский край, Россия) (59 км)
Погода в Мельничном (Приморский край, Россия) (125 км)
Погода в Рудной Пристани (Приморский край, Россия) (154 км)
Погода в Сосуново (Приморский край, Россия) (158 км)
Погода в Глубинном (Приморский край, Россия) (158 км)
Погода в Богополе (Приморский край, Россия) (185 км)
Погода в Красном Яре (Приморский край, Россия) (188 км)
Погода в Кавалерово (Приморский край, Россия) (209 км)
Погода в Малиново (Приморский край, Россия) (226 км)
Погода в Ольге (Приморский край, Россия) (232 км)

Пояснения к столбцам:

Ветер - указаны скорость ветра в м/с - средняя за 10 мин, порывы в срок и между сроками (в фигурных скобках) и направление, откуда дует ветер: С - северный, СВ - северо-восточный, В - восточный, ЮВ - юго-восточный, Ю - южный, ЮЗ - юго-западный, З - западный, СЗ - северо-западный.
Видимость - горизонтальная дальность видимости в метрах или километрах. При видимости от 1 до 10 км при отсутствии осадков обычно наблюдается дымка, при ухудшении видимости до 1 км и менее - туман. В сухую погоду видимость может ухудшаться дымом, пылью или мглою.
Явления - указаны атмосферные явления, наблюдавшиеся в срок или в последний час перед сроком; фигурными скобками обозначены явления, наблюдавшиеся между сроками (за 1-3 часа до срока); квадратными скобками обозначены град или гололедные отложения с указанием их диаметра в мм.
Облачность - указаны через наклонную черту общая и нижняя облачность в баллах и высота нижней границы облаков в метрах; квадратными скобками обозначены формы облаков: Ci - перистые, Cs - перисто-слоистые, Cc - перисто-кучевые, Ac - высококучевые, As - высокослоистые, Sc - слоисто-кучевые, Ns - слоисто-дождевые, Cu - кучевые, Cb - кучево-дождевые. Подробнее классификацию облаков см. в Атласе облаков (PDF).
T - Температура воздуха - температура, измеренная на высоте 2 м над землей.
Td - Температура точки росы - температура, при понижении до которой содержащийся в воздухе водяной пар достигнет насыщения.
f - Относительная влажность воздуха - влажноcть воздуха, измеренная на высоте 2 м над землей.
Te - Эффективная температура - температура, которую ощущает одетый по сезону человек в тени. Характеристика душности погоды. При расчете учитывается влияние влажности воздуха и скорости ветра на теплоощущения человека.
Tes - Эффективная температура на солнце - температура, которую ощущает человек, с поправкой на солнечный нагрев. Характеристика знойности погоды. Зависит от высоты солнца над горизонтом, облачности и скорости ветра. Ночью, в пасмурную погоду, а также при ветре 12 м/с и более поправка равна нулю.
P - Атмосферное давление - приведенное к уровню моря атмосферное давление.
Po - Атмосферное давление - измеренное на уровне метеостанции атмосферное давление.
Tmin - Минимальная температура - минимум температуры воздуха на высоте 2 м над землей.
Tmax - Максимальная температура - максимум температуры воздуха на высоте 2 м над землей.
R - Количество осадков - Количество выпавших осадков за период времени, мм. При наведении курсора мыши на число - период времени, за который выпало указанное количество осадков.
R24 - Количество осадков - Количество выпавших осадков за 24 часа, мм.
S - Снежный покров - Высота снежного покрова, см. При наведении курсора мыши на число - состояние снежного покрова и степень покрытия местности в баллах.